Location: Pea Ridge
(34.0640°N, 87.8670°W)
Time: 03:13:26
(UTC+00:00)

A-11 Canister half - Pass Details

Date: 22 December 2025
Orbit: 1526 x 1682 km, 47.3° (Epoch: 21 January)

Event Time Altitude Azimuth Distance (km) Brightness Sun altitude
Rises 22:33:29 0° 293° (WNW) 4,923 12.2 1.6°
Reaches altitude 10° 22:37:47 10° 278° (W) 3,917 12.1 0.8°
Maximum altitude 22:44:23 20° 236° (WSW) 3,147 12.3 -0.4°
Drops below altitude 10° 22:50:53 10° 194° (SSW) 3,834 11.8 -1.6°
Sets 22:55:05 0° 178° (S) 4,789 12.0 -2.4°
